CW9181 Weather Reports


time (UTC)temp
F
wind
direction
speed
knots
gust
knots
rain 1hr
in
rain 24hr
in
rain mn
in
humidity
%
barometer
mb
20260902220026 78 265 4.3 9.6 0.00 0.00 0.00 50 1016.1
20260902215027 77 270 5.2 9.6 0.00 0.00 0.00 50 1016.2
20260902214023 76 311 3.5 8.7 0.00 0.00 0.00 50 1016.5
20260902213027 78 260 3.5 8.7 0.00 0.00 0.00 49 1016.5
20260902212012 78 255 1.7 8.7 0.00 0.00 0.00 49 1016.6
20260902211038 77 175 2.6 9.6 0.00 0.00 0.00 52 1016.6
20260902210019 75 270 3.5 9.6 0.00 0.00 0.00 52 1016.6
20260902205022 76 295 3.5 8.7 0.00 0.00 0.00 53 1016.7
20260902204018 77 251 3.5 8.7 0.00 0.00 0.00 52 1016.8
20260902203105 75 274 4.3 9.6 0.00 0.00 0.00 53 1016.9
20260902202014 77 184 3.5 9.6 0.00 0.00 0.00 53 1017.1
20260902201031 76 254 3.5 7.0 0.00 0.00 0.00 53 1017.2
20260902200009 75 249 3.5 7.0 0.00 0.00 0.00 56 1017.3
20260902195048 75 238 2.6 7.8 0.00 0.00 0.00 56 1017.3
20260902194031 75 245 4.3 9.6 0.00 0.00 0.00 55 1017.4
20260902193034 75 227 2.6 8.7 0.00 0.00 0.00 55 1017.6
20260902192009 74 253 4.3 8.7 0.00 0.00 0.00 56 1017.6
20260902191016 74 230 2.6 4.3 0.00 0.00 0.00 55 1017.8
20260902190036 74 196 4.3 6.1 0.00 0.00 0.00 56 1017.9
20260902185011 74 103 1.7 3.5 0.00 0.00 0.00 56 1017.8
20260902184016 73 306 0.9 5.2 0.00 0.00 0.00 59 1017.8
20260902183020 73 284 2.6 4.3 0.00 0.00 0.00 58 1017.9
20260902182038 74 164 2.6 7.0 0.00 0.00 0.00 57 1018.0
20260902181016 74 124 2.6 6.1 0.00 0.00 0.00 58 1017.9
20260902180016 74 247 3.5 7.8 0.00 0.00 0.00 58 1017.9
20260902175009 74 282 3.5 7.0 0.00 0.00 0.00 59 1018.0
20260902174035 73 107 3.5 5.2 0.00 0.00 0.00 60 1018.0
20260902173018 72 149 2.6 5.2 0.00 0.00 0.00 62 1017.9
20260902172020 70 223 2.6 4.3 0.00 0.00 0.00 64 1017.8
20260902171023 72 140 1.7 6.1 0.00 0.00 0.00 62 1017.8
20260902170022 70 64 0.9 6.1 0.00 0.00 0.00 64 1017.7
20260902165024 70 104 3.5 7.8 0.00 0.00 0.00 66 1017.7
20260902164041 69 95 1.7 4.3 0.00 0.00 0.00 66 1017.6
20260902163019 68 156 1.7 6.1 0.00 0.00 0.00 67 1017.5
20260902162019 68 162 3.5 6.1 0.00 0.00 0.00 68 1017.5
20260902161021 68 168 2.6 4.3 0.00 0.00 0.00 69 1017.6
20260902160043 67 118 1.7 4.3 0.00 0.00 0.00 70 1017.8
20260902155010 66 178 2.6 6.1 0.00 0.00 0.00 72 1017.6
20260902154013 65 153 2.6 4.3 0.00 0.00 0.00 73 1017.7
20260902153050 64 122 3.5 4.3 0.00 0.00 0.00 74 1017.7
20260902153014 64 122 3.5 4.3 0.00 0.00 0.00 74 1017.7
20260902152028 63 172 1.7 5.2 0.00 0.00 0.00 77 1017.6
20260902151028 62 101 1.7 4.3 0.00 0.00 0.00 78 1017.6
20260902150008 62 107 1.7 3.5 0.00 0.00 0.00 79 1017.5
20260902145026 61 85 2.6 4.3 0.00 0.00 0.00 79 1017.5
20260902144009 61 101 2.6 3.5 0.00 0.00 0.00 79 1017.3
20260902143010 61 130 3.5 6.1 0.00 0.00 0.00 80 1017.2
20260902142014 60 89 4.3 5.2 0.00 0.00 0.00 80 1017.1
20260902141010 60 108 1.7 3.5 0.00 0.00 0.00 81 1017.2
20260902140031 60 122 0.0 3.5 0.00 0.00 0.00 81 1017.2
20260902135049 60 131 0.9 3.5 0.00 0.00 0.00 81 1017.1
20260902134026 60 128 0.9 2.6 0.00 0.00 0.00 81 1016.9
20260902133009 59 106 1.7 2.6 0.00 0.00 0.00 81 1016.9
20260902132033 60 143 0.9 2.6 0.00 0.00 0.00 81 1016.9
20260902131015 60 126 1.7 4.3 0.00 0.00 0.00 81 1016.7
20260902130016 60 139 2.6 4.3 0.00 0.00 0.00 80 1016.8
20260902125037 60 141 0.9 4.3 0.00 0.00 0.00 80 1016.7
20260902124022 60 145 1.7 3.5 0.00 0.00 0.00 80 1016.6
20260902123048 60 126 0.9 4.3 0.00 0.00 0.00 80 1016.5
20260902122014 60 137 2.6 5.2 0.00 0.00 0.00 80 1016.6
20260902121012 60 102 2.6 4.3 0.00 0.00 0.00 80 1016.6
20260902120016 60 102 2.6 4.3 0.00 0.00 0.00 80 1016.6
20260902115020 60 128 2.6 6.1 0.00 0.00 0.00 80 1016.6
20260902114020 60 135 2.6 6.1 0.00 0.00 0.00 80 1016.7
20260902113025 60 114 2.6 5.2 0.00 0.00 0.00 80 1016.5
20260902112027 60 83 1.7 4.3 0.00 0.00 0.00 80 1016.3
20260902111025 60 141 2.6 4.3 0.00 0.00 0.00 80 1016.4
20260902110008 60 110 2.6 4.3 0.00 0.00 0.00 80 1016.5
20260902105014 59 150 2.6 4.3 0.00 0.00 0.00 80 1016.7
20260902104019 59 120 2.6 4.3 0.00 0.00 0.00 80 1016.7
20260902103019 59 172 2.6 4.3 0.00 0.00 0.00 80 1016.7
20260902102042 59 132 1.7 3.5 0.00 0.00 0.00 79 1016.7
20260902101021 59 132 2.6 4.3 0.00 0.00 0.00 79 1016.8
20260902100026 59 122 1.7 4.3 0.00 0.00 0.00 79 1016.9
20260902095012 59 121 1.7 3.5 0.00 0.00 0.00 79 1016.9
20260902094012 60 128 1.7 3.5 0.00 0.00 0.00 79 1016.8
20260902093013 60 120 1.7 3.5 0.00 0.00 0.00 79 1016.8
20260902092038 60 130 1.7 5.2 0.00 0.00 0.00 79 1016.9
20260902091042 60 143 1.7 4.3 0.00 0.00 0.00 78 1016.8
20260902090021 60 149 1.7 5.2 0.00 0.00 0.00 78 1016.8
20260902085023 60 121 1.7 3.5 0.00 0.00 0.00 78 1016.8
20260902084026 60 105 2.6 4.3 0.00 0.00 0.00 78 1016.8
20260902083025 60 88 2.6 4.3 0.00 0.00 0.00 77 1016.9
20260902082011 60 119 2.6 6.1 0.00 0.00 0.00 77 1016.8
20260902081014 61 116 2.6 5.2 0.00 0.00 0.00 77 1016.7
20260902080013 61 137 2.6 6.1 0.00 0.00 0.00 77 1016.6
20260902075038 61 176 2.6 7.0 0.00 0.00 0.00 77 1016.3
20260902074021 61 138 2.6 6.1 0.00 0.00 0.00 76 1016.4
20260902073043 61 120 4.3 7.8 0.00 0.00 0.00 76 1016.4
20260902072025 61 132 4.3 7.0 0.00 0.00 0.00 76 1016.4
20260902071048 61 152 2.6 5.2 0.00 0.00 0.00 75 1016.5
20260902070022 61 143 3.5 7.0 0.00 0.00 0.00 75 1016.4
20260902065045 62 137 3.5 7.8 0.00 0.00 0.00 74 1016.5
20260902064024 62 119 4.3 7.0 0.00 0.00 0.00 74 1016.3
20260902063027 62 99 2.6 6.1 0.00 0.00 0.00 74 1016.5
20260902062023 62 135 3.5 5.2 0.00 0.00 0.00 73 1016.5
20260902061043 62 185 2.6 4.3 0.00 0.00 0.00 73 1016.6
20260902060017 63 121 2.6 8.7 0.00 0.00 0.00 72 1016.7
20260902055018 63 137 3.5 6.1 0.00 0.00 0.00 72 1016.6
20260902054038 63 184 1.7 4.3 0.00 0.00 0.00 70 1016.7
20260902053017 63 195 3.5 7.0 0.00 0.00 0.00 70 1016.6
20260902052020 64 186 3.5 6.1 0.00 0.00 0.00 69 1016.5
20260902051044 64 174 1.7 4.3 0.00 0.00 0.00 67 1016.5
20260902050020 64 150 3.5 7.0 0.00 0.00 0.00 67 1016.5
20260902045021 65 223 0.9 7.0 0.00 0.00 0.00 66 1016.4
20260902044020 65 150 2.6 7.8 0.00 0.00 0.00 66 1016.3
20260902043020 65 216 3.5 8.7 0.00 0.00 0.00 65 1016.1
20260902042018 66 196 3.5 10.4 0.00 0.00 0.00 64 1016.0
20260902041013 66 219 1.7 9.6 0.00 0.00 0.00 63 1015.9
20260902040013 66 214 2.6 9.6 0.00 0.00 0.00 62 1015.8
20260902035025 67 230 3.5 8.7 0.00 0.00 0.00 61 1015.5
20260902034047 67 234 3.5 8.7 0.00 0.00 0.00 61 1015.3
20260902033019 67 265 2.6 9.6 0.00 0.00 0.00 60 1015.1
20260902032021 68 245 2.6 10.4 0.00 0.00 0.00 58 1015.0
20260902031022 68 232 2.6 5.2 0.00 0.00 0.00 57 1014.7
20260902030035 69 310 3.5 7.8 0.00 0.00 0.00 55 1014.8
20260902025013 69 220 1.7 7.8 0.00 0.00 0.00 54 1014.5
20260902024016 70 255 2.6 7.8 0.00 0.00 0.00 53 1014.3
20260902023017 70 242 2.6 9.6 0.00 0.00 0.00 52 1014.3
20260902022012 70 234 3.5 10.4 0.00 0.00 0.00 51 1014.1
20260902021033 71 254 3.5 8.7 0.00 0.00 0.00 49 1014.1
20260902020011 72 211 4.3 10.4 0.00 0.00 0.00 49 1014.1
20260902015028 72 214 3.5 9.6 0.00 0.00 0.00 48 1014.1
20260902014028 73 205 3.5 9.6 0.00 0.00 0.00 47 1013.9
20260902013022 74 255 4.3 13.9 0.00 0.00 0.00 46 1013.9
20260902012025 75 238 3.5 9.6 0.00 0.00 0.00 43 1013.8
20260902011025 76 214 2.6 7.8 0.00 0.00 0.00 43 1013.8
20260902010020 76 256 3.5 8.7 0.00 0.00 0.00 43 1013.8
20260902005018 76 200 5.2 9.6 0.00 0.00 0.00 42 1013.8
20260902004019 77 207 4.3 7.8 0.00 0.00 0.00 41 1013.8
20260902003021 77 208 3.5 11.3 0.00 0.00 0.00 40 1013.9
20260902002016 77 270 5.2 11.3 0.00 0.00 0.00 41 1013.8
20260902001031 78 180 2.6 8.7 0.00 0.00 0.00 41 1013.9
20260902000013 78 166 3.5 9.6 0.00 0.00 0.00 39 1014.1
20260901235028 78 247 4.3 7.8 0.00 0.00 0.00 39 1014.0
20260901234028 77 181 5.2 11.3 0.00 0.00 0.00 40 1014.2
20260901233027 77 166 3.5 9.6 0.00 0.00 0.00 39 1014.0
20260901232024 77 243 5.2 12.2 0.00 0.00 0.00 39 1014.2
20260901231024 78 168 3.5 9.6 0.00 0.00 0.00 39 1014.4
20260901230043 77 236 5.2 8.7 0.00 0.00 0.00 39 1014.4
20260901225041 77 122 4.3 8.7 0.00 0.00 0.00 42 1014.4
20260901224020 76 153 3.5 10.4 0.00 0.00 0.00 42 1014.6
20260901223017 76 214 1.7 8.7 0.00 0.00 0.00 44 1014.7
20260901222017 76 218 3.5 8.7 0.00 0.00 0.00 46 1014.8
20260901221019 75 207 2.6 7.8 0.00 0.00 0.00 47 1014.8